Location: Sabana Grande
(18.0777°N, 66.9605°W)
Time: 02:53:02
(UTC-04:00)

ACS3 Solar Sail - Pass Details

Date: 28 September 2024
Orbit: 960 x 1033 km, 97.5° (Epoch: 12 October)

Event Time Altitude Azimuth Distance (km) Brightness Sun altitude
Exits shadow 21:08:38 17° 342° (NNW) 2,353 4.0 -41.1°
Drops below altitude 10° 21:09:55 10° 344° (NNW) 2,829 4.4 -41.4°
Sets 21:12:27 0° 346° (NNW) 3,782 5.2 -41.9°
